KMTNet CTIO LOG BOOK 2015.03.17 1  / 1 pages  
                         
Observer: Choi,Kim,Ko Test Observation CCD: 18K CCD    
Weather: clear Temp: 15.9/15.4/14.1 Hum: 52/53/50 Moon:14% Av. seeing:<1.1 D.Temp: 1.53e-05
D.Temp: 1.45e-05
   
                         
File Number Object ProjectID Exp. Start Exp. Time Filter FWHM Comments    
5482 begin OBS 22:28 1 R        
5483-5492 bias ALL 22:31   R        
5493-5497 dark ALL 22:45 100 R        
5498 flat ALL 23:21 5(3.5) V   Level=34000    
5499 flat ALL 23:23 9(7.1) V   Level=33000    
5500 flat ALL 23:26 20(14.8) V   Level=40000    
5501 flat ALL 23:28 14(8.4) I   Level=sat    
5502 flat ALL 23:31 16(16.2) I   Level=sat    
5503 flat ALL 23:33 15(30) I   Level=32000, cloud include    
5504 flat ALL 23:36 30(60) I   Level=35000    
5505 flat ALL 23:38 45(100) I   Level=31000    
5506 flat ALL 23:41 85(190) I   Level=37000, bright star include    
5507-5509 focus SN 23:45 10 V 1.5(-) f=-1.43(T=19.5)    
5510-5512 N2784-3 SN 23:55 60   1.7(-) filter=B,V,I    
5513-5515 N2784-4 SN 0:03 60   1.7(1.6) f=-1.45    
5516-5518 N2784-5 SN 0:11 60   1.6(1.3)      
5519-5521 N2784-6 SN 0:18 60   1.6(1.2)      
5522-5524 N2784-7 SN 0:26 60   1.6(1.0)      
5525-5527 N2784-3 SN 0:34 60   1.4(1.0) f=-1.43(T=18.9)    
5528-5530 N2784-4 SN 0:42 60   1.4(1.0)      
5531-5533 N2784-4 SN 0:50 60   1.3(0.9) f=-1.4, object name miss(N2784-5 is right name)    
5534-5536 N2784-6 SN 0:58 60   1.5(1.0)      
5537-5539 N2784-7 SN 1:06 60   1.3(0.7)      
5540-5542 N2784-3 SN 1:13 60   1.2(0.6)      
5543-5545 N2784-4 SN 1:21 60   1.1(0.6) f=-1.38(T=18.6)    
5546-5548 N2784-5 SN 1:29 60   1.1(0.8)      
5549-5551 N2784-6 SN 1:37 60   1.3(0.8)      
5552-5554 N2784-7 SN 1:45 60   1.0(-)      
5555-5557 N2784-3 SN 1:52 60   1.0(-)      
5558-5560 N2784-4 SN 2:01 60   1.0(0.7) f=-1.36(T=18.2)    
5561-5563 N2784-5 SN 2:09 60   1.2(0.6)      
5564-5566 N2784-6 SN 2:16 60   1.0(0.6)      
5567-5569 N2784-7 SN 2:24 60   1.0(0.6)      
5570-5572 N2784-3 SN 2:32 60   1.1(0.6)      
5573-5575 N2784-4 SN 2:40 60   1.0(0.6)      
5576-5578 N2784-5 SN 2:47 60   0.8(0.6) f=-1.34(T=17.8)    
5579-5581 N2784-6 SN 2:55 60   0.9(0.6)      
5582-5584 N2784-7 SN 3:02 60   0.9(0.6)      
5585-5587 N2784-3 SN 3:10 60   0.9(0.6)      
5588-5590 N2784-4 SN 3:18 60   0.9(0.6)      
5591-5593 N2784-5 SN 3:26 60   0.8(0.5)      
5594-5596 N2784-6 SN 3:34 60   0.9(0.6)      
5597-5599 N2784-7 SN 3:42 60   0.8(0.6)      
5600-5602 N2784-3 SN 3:49 60   0.8(0.6)      
5603-5605 N2784-4 SN 3:57 60   0.9(0.6)      
5606-5608 N2784-5 SN 4:05 60   0.9(0.6)      
5609-5611 N2784-6 SN 4:14 60   0.9(0.7)      
5612-5614 N2784-7 SN 4:26 60   1.0(0.7)      
5615-5617 N2784-3 SN 4:31 60   1.1(0.7)      
5618-5620 N2784-4 SN 4:39 60   1.1(0.7)      
5621-5623 N2784-5 SN 4:47 60   1.0(0.7)      
5624-5626 N2784-6 SN 4:56 60   1.0(0.7)      
5627-5629 N2784-7 SN 5:03 60   1.0(0.7)      
5630-5632 N2784-3 SN 5:11 60   1.0(0.7)      
5633-5635 N2784-4 SN 5:19 60   1.0(0.7)      
5636-5638 N2784-5 SN 5:28 60   1.0(0.7)      
5639-5641 N2784-6 SN 5:37 60          
5642-5646 bias ALL 5:40   I   5643-5646 N image not saved. IC N reset    
                   
5736-5740 bias ALL 9:55   I    
5741 flat ALL 10:01 100(85) R   Level=42000
5742 flat ALL 10:10 45(34.8) R   Level=30000
5743 flat ALL 10:12 28(18.4) R   Level=30000    
5744 flat ALL 10:14 20(20) B   Level=40000      
5745 flat ALL 10:17 10(11) B   Level=36000      
5746 flat ALL 10:19 5(7) B   Level=29000      
5747-5749 dark ALL 10:21 100 R          
5750 end OBS 10:31 1 R